www.pogodaiklimat.ru

Погода и климат >> Архив погоды >> Южная Африка >> Александер-Бей


ПОГОДА в Александер-Бее

  • Прогноз погоды в Александер-Бее
  • Монитор погоды в Александер-Бее

АРХИВ ПОГОДЫ в Александер-Бее

Время (UTC), дата Ветер
(напр.,м/с)
 
Видим.   Явления Облачность Т
(С)
Тd
(С)
f
(%)
Тe
(С)
Тes
(С)
Комфортность P
(гПа)
Po
(гПа)
Тmin
(С)
Tmax
(С)
R
(мм)
R24
(мм)
S
(см)
03 10.06 СВ 1 н/о н/о +10.9 +9.6 92 +10 +10 1023.8 1020.9 +10.5 +26.6
06 10.06 Ю 1 н/о н/о +9.1 +8.0 93 +8 +8 1025.2 1022.3 +9.0
09 10.06 В 1 н/о н/о +17.8 +13.1 74 +19 +19 1025.4 1022.6 +9.0 +17.8
15 10.06 ЮЗ 8 н/о н/о +17.9 +11.7 67 +17 +17 1021.8 1019.0 +17.9 +21.6
18 10.06 Ю 2 н/о н/о +15.6 +10.8 73 +16 +16 1022.0 1019.2 +15.5 +21.6
21 10.06 ЮЗ 1 н/о н/о +13.6 +10.7 83 +14 +14 1021.7 1018.8 +13.6 +21.6
00 11.06 СЗ 2 н/о н/о +10.3 +9.8 97 +9 +9 1021.0 1018.1 +10.3 +21.6
03 11.06 штиль 0 н/о н/о +7.9 +7.1 95 +7 +7 1019.3 1016.4 +7.8 +21.6
06 11.06 В 2 н/о н/о +8.8 +7.7 93 +7 +7 1019.4 1016.5 +7.4
09 11.06 В 3 н/о н/о +16.9 +9.8 63 +17 +17 1018.7 1015.9 +7.4 +16.9
12 11.06 З 7 н/о н/о +22.6 +10.2 45 +24 +24 комфорт 1017.0 1014.2 +7.4 +29.5
15 11.06 З 5 н/о н/о +15.2 +12.1 82 +14 +14 1019.2 1016.4 +15.2 +29.5
18 11.06 СЗ 3 н/о н/о +13.0 +11.5 91 +12 +12 1022.0 1019.1 +13.0 +29.5
21 11.06 СВ 1 н/о н/о +12.5 +11.2 92 +12 +12 1023.6 1020.7 +10.7 +29.5
00 12.06 Ю 2 н/о н/о +9.0 +7.9 93 +7 +7 1023.8 1020.9 +9.0 +29.5
03 12.06 В 2 н/о н/о +11.5 +10.2 92 +11 +11 1025.0 1022.1 +8.7 +29.5
06 12.06 ЮЗ 4 н/о н/о +12.7 +11.4 92 +11 +11 1026.6 1023.7 +8.7
09 12.06 Ю 4 н/о н/о +17.6 +13.3 76 +17 +17 1027.2 1024.4 +8.7 +17.6
12 12.06 ЮЗ 9 н/о н/о +18.1 +12.6 70 +17 +17 1026.7 1023.9 +8.7 +18.9
15 12.06 ЮЗ 10 н/о н/о +17.3 +8.8 57 +16 +16 1026.0 1023.2 +17.2 +18.9
00 13.06 штиль 0 н/о н/о +11.7 +2.4 53 +11 +11 1028.9 1026.0 +11.1 +18.9
03 13.06 Ю 2 н/о н/о +11.9 +1.8 50 +11 +11 1028.1 1025.2 +11.0 +18.9
06 13.06 ЮЗ 2 н/о н/о +7.3 +1.3 66 +6 +6 1029.0 1026.0 +7.2
09 13.06 штиль 0 н/о н/о +15.6 +3.1 43 +16 +16 1028.7 1025.8 +7.2 +15.6
12 13.06 ЮЗ 5 н/о н/о +20.8 +4.1 33 +21 +21 комфорт 1024.9 1022.1 +7.2 +21.1
18 13.06 ЮЗ 2 н/о н/о +12.5 +7.0 69 +12 +12 1025.7 1022.8 +12.5 +21.9
21 13.06 Ю 1 н/о н/о +9.0 +5.0 76 +8 +8 1025.6 1022.7 +9.0 +21.9
00 14.06 штиль 0 н/о н/о +8.2 +3.8 74 +8 +8 1023.9 1021.0 +7.6 +21.9
03 14.06 ЮЗ 3 н/о н/о +9.4 +2.9 64 +8 +8 1023.3 1020.4 +7.6 +21.9
06 14.06 В 3 н/о н/о +11.4 +0.2 46 +10 +10 1024.8 1021.9 +7.6
09 14.06 В 7 н/о н/о +24.4 +0.2 20 +23 +23 комфорт 1024.8 1022.0 +7.6 +24.4
12 14.06 В 8 н/о н/о +28.5 -1.2 14 +26 +26 жарко 1021.3 1018.6 +7.6 +28.6
15 14.06 В 6 н/о н/о +29.3 -1.6 13 +26 +26 жарко 1020.0 1017.3 +28.7 +29.9
21 14.06 ЮЗ 3 н/о н/о +11.8 +3.1 55 +10 +10 1022.3 1019.4 +11.8 +29.9
00 15.06 Ю 1 н/о н/о +9.2 -2.0 45 +9 +9 1021.7 1018.8 +9.2 +29.9
03 15.06 ЮВ 2 н/о н/о +10.0 -1.6 44 +9 +9 1020.6 1017.7 +9.0 +29.9
06 15.06 З 3 н/о н/о +11.5 -2.6 37 +11 +11 1021.0 1018.1 +9.0
09 15.06 В 6 н/о н/о +26.4 -6.1 11 +24 +24 комфорт 1021.0 1018.3 +9.0 +26.4
15 15.06 ЮЗ 7 н/о н/о +21.7 +2.5 28 +22 +22 комфорт 1017.9 1015.1 +21.7 +32.0
18 15.06 СЗ 4 н/о н/о +14.3 +6.4 59 +13 +13 1019.5 1016.6 +14.3 +32.0
03 16.06 В 7 н/о н/о +12.9 +0.3 42 +11 +11 1017.1 1014.2 +9.0 +32.0
06 16.06 штиль 0 н/о н/о +14.0 -2.3 32 +14 +14 1017.5 1014.7 +9.0
09 16.06 В 7 н/о н/о +27.8 +1.6 18 +26 +26 жарко 1018.1 1015.4 +9.0 +27.8
12 16.06 В 5 н/о н/о +32.5 +0.9 13 +29 +29 жарко 1015.2 1012.5 +9.0 +32.5

 

Местоположение метеостанции Александер-Бей (Южная Африка): широта -28.56 долгота 16.53 высота над уровнем моря 29 м.

В архиве по умолчанию представлена погода в Александер-Бее за последнюю неделю. Архивные данные за месяц целиком и за предыдущие месяцы, начиная с января 2011 года, Вы можете получить, выбрав интересующий диапазон дат из раскрывающегося списка и нажав кнопку "Ввод!".


*Определитесь, кто Вы:
робот инопланетянин человек

Внимание! Время в таблицах - всемирное. Для получения местного времени необходимо прибавить поправку, которая равна 2 ч.

Смотрите также архив погоды в соседних городах и на ближайших метеорологических станциях:

Погода в Порт Ноллоз (Южная Африка) (82 км)
Погода в Виулсдрифе (Южная Африка) (106 км)
Погода в Спрингбоке (Южная Африка) (181 км)
Погода в Коингнаасе (Южная Африка) (196 км)
Погода в Людерице (Намибия) (257 км)
Погода в Китмансхупе (Намибия) (275 км)
Погода в Пофаддере (Южная Африка) (285 км)
Погода в Портервилле (Южная Африка) (287 км)
Погода на Ауграбисе (Южная Африка) (372 км)
Погода в Фридендале (Южная Африка) (393 км)

Пояснения к столбцам:

Ветер - указаны скорость ветра в м/с - средняя за 10 мин, порывы в срок и между сроками (в фигурных скобках) и направление, откуда дует ветер: С - северный, СВ - северо-восточный, В - восточный, ЮВ - юго-восточный, Ю - южный, ЮЗ - юго-западный, З - западный, СЗ - северо-западный.
Видимость - горизонтальная дальность видимости в метрах или километрах. При видимости от 1 до 10 км при отсутствии осадков обычно наблюдается дымка, при ухудшении видимости до 1 км и менее - туман. В сухую погоду видимость может ухудшаться дымом, пылью или мглою.
Явления - указаны атмосферные явления, наблюдавшиеся в срок или в последний час перед сроком; фигурными скобками обозначены явления, наблюдавшиеся между сроками (за 1-3 часа до срока); квадратными скобками обозначены град или гололедные отложения с указанием их диаметра в мм.
Облачность - указаны через наклонную черту общая и нижняя облачность в баллах и высота нижней границы облаков в метрах; квадратными скобками обозначены формы облаков: Ci - перистые, Cs - перисто-слоистые, Cc - перисто-кучевые, Ac - высококучевые, As - высокослоистые, Sc - слоисто-кучевые, Ns - слоисто-дождевые, Cu - кучевые, Cb - кучево-дождевые. Подробнее классификацию облаков см. в Атласе облаков (PDF).
T - Температура воздуха - температура, измеренная на высоте 2 м над землей.
Td - Температура точки росы - температура, при понижении до которой содержащийся в воздухе водяной пар достигнет насыщения.
f - Относительная влажность воздуха - влажноcть воздуха, измеренная на высоте 2 м над землей.
Te - Эффективная температура - температура, которую ощущает одетый по сезону человек в тени. Характеристика душности погоды. При расчете учитывается влияние влажности воздуха и скорости ветра на теплоощущения человека.
Tes - Эффективная температура на солнце - температура, которую ощущает человек, с поправкой на солнечный нагрев. Характеристика знойности погоды. Зависит от высоты солнца над горизонтом, облачности и скорости ветра. Ночью, в пасмурную погоду, а также при ветре 12 м/с и более поправка равна нулю.
P - Атмосферное давление - приведенное к уровню моря атмосферное давление.
Po - Атмосферное давление - измеренное на уровне метеостанции атмосферное давление.
Tmin - Минимальная температура - минимум температуры воздуха на высоте 2 м над землей.
Tmax - Максимальная температура - максимум температуры воздуха на высоте 2 м над землей.
R - Количество осадков - Количество выпавших осадков за период времени, мм. При наведении курсора мыши на число - период времени, за который выпало указанное количество осадков.
R24 - Количество осадков - Количество выпавших осадков за 24 часа, мм.
S - Снежный покров - Высота снежного покрова, см. При наведении курсора мыши на число - состояние снежного покрова и степень покрытия местности в баллах.